OK1VCF-8 Weather Reports


time (UTC)temp
C
wind
direction
speed
KPH
gust
KPH
rain 1hr
cm
rain 24hr
cm
rain mn
cm
humidity
%
barometer
mb
20260503212405 16 0 0.0 0.0 0.00 0.00 0.00 48 1013.4
20260503211646 16 0 0.0 0.0 0.00 0.00 0.00 48 1013.6
20260503210929 17 0 0.0 0.0 0.00 0.00 0.00 46 1013.4
20260503210211 17 0 0.0 0.0 0.00 0.00 0.00 46 1013.4
20260503205454 17 0 0.0 0.0 0.00 0.00 0.00 46 1013.4
20260503204737 17 0 0.0 0.0 0.00 0.00 0.00 45 1013.8
20260503204019 17 0 0.0 0.0 0.00 0.00 0.00 46 1013.5
20260503203300 17 0 0.0 0.0 0.00 0.00 0.00 45 1013.5
20260503202541 17 0 0.0 0.0 0.00 0.00 0.00 44 1013.4
20260503201822 17 0 0.0 0.0 0.00 0.00 0.00 44 1013.4
20260503201103 18 0 0.0 0.0 0.00 0.00 0.00 44 1013.5
20260503200345 18 0 0.0 0.0 0.00 0.00 0.00 44 1013.5
20260503195625 18 0 0.0 0.0 0.00 0.00 0.00 43 1013.6
20260503194907 18 0 0.0 0.0 0.00 0.00 0.00 43 1013.6
20260503194149 18 0 0.0 0.0 0.00 0.00 0.00 42 1013.6
20260503193147 18 0 0.0 0.0 0.00 0.00 0.00 42 1013.4
20260503192429 18 0 0.0 0.0 0.00 0.00 0.00 42 1013.4
20260503191708 18 0 0.0 0.0 0.00 0.00 0.00 41 1013.4
20260503190950 18 0 0.0 0.0 0.00 0.00 0.00 40 1013.3
20260503190231 19 0 0.0 0.0 0.00 0.00 0.00 40 1013.7
20260503185511 19 0 0.0 0.0 0.00 0.00 0.00 40 1013.2
20260503184755 20 0 0.0 0.0 0.00 0.00 0.00 38 1013.2
20260503184037 20 0 0.0 0.0 0.00 0.00 0.00 37 1013.2
20260503183318 20 0 0.0 0.0 0.00 0.00 0.00 36 1013.1
20260503182600 20 0 0.0 0.0 0.00 0.00 0.00 36 1013.0
20260503181840 20 0 0.0 0.0 0.00 0.00 0.00 34 1012.9
20260503181122 21 0 0.0 0.0 0.00 0.00 0.00 34 1012.9
20260503180401 21 0 0.0 0.0 0.00 0.00 0.00 33 1012.8
20260503175641 21 0 0.0 0.0 0.00 0.00 0.00 32 1012.7
20260503173219 23 0 0.0 0.0 0.00 0.00 0.00 28 1012.6
20260503172501 23 0 0.0 0.0 0.00 0.00 0.00 27 1012.6
20260503171742 24 0 0.0 0.0 0.00 0.00 0.00 26 1012.6
20260503171024 24 0 0.0 0.0 0.00 0.00 0.00 26 1012.6
20260503170304 25 0 0.0 0.0 0.00 0.00 0.00 25 1012.7
20260503150310 36 0 0.0 0.0 0.00 0.00 0.00 14 1013.3
20260503131036 27 0 0.0 0.0 0.00 0.00 0.00 22 1014.9
20260503130312 27 0 0.0 0.0 0.00 0.00 0.00 26 1015.0
20260503110433 25 0 0.0 0.0 0.00 0.00 0.00 26 1016.4
20260503090447 23 0 0.0 0.0 0.00 0.00 0.00 32 1017.6
20260503080333 21 0 0.0 0.0 0.00 0.00 0.00 38 1018.0
20260503072652 18 0 0.0 0.0 0.00 0.00 0.00 42 1018.3
20260503071932 18 0 0.0 0.0 0.00 0.00 0.00 44 1018.2
20260503071157 17 0 0.0 0.0 0.00 0.00 0.00 45 1018.4
20260503070422 17 0 0.0 0.0 0.00 0.00 0.00 46 1018.4
20260503054600 13 0 0.0 0.0 0.00 0.00 0.00 57 1018.4
20260503053840 13 0 0.0 0.0 0.00 0.00 0.00 57 1018.5
20260503053123 12 0 0.0 0.0 0.00 0.00 0.00 58 1018.5
20260503052403 12 0 0.0 0.0 0.00 0.00 0.00 58 1018.6
20260503051646 12 0 0.0 0.0 0.00 0.00 0.00 60 1018.6
20260503050927 12 0 0.0 0.0 0.00 0.00 0.00 60 1018.6
20260503050210 11 0 0.0 0.0 0.00 0.00 0.00 62 1018.8
20260503045451 11 0 0.0 0.0 0.00 0.00 0.00 62 1018.7
20260503044733 11 0 0.0 0.0 0.00 0.00 0.00 61 1018.6
20260503044015 12 0 0.0 0.0 0.00 0.00 0.00 58 1018.8
20260503043257 11 0 0.0 0.0 0.00 0.00 0.00 62 1018.6
20260503042253 12 0 0.0 0.0 0.00 0.00 0.00 60 1018.6
20260503041535 14 0 0.0 0.0 0.00 0.00 0.00 54 1018.5
20260503040816 11 0 0.0 0.0 0.00 0.00 0.00 62 1018.4
20260503040058 12 0 0.0 0.0 0.00 0.00 0.00 60 1018.4
20260503035340 11 0 0.0 0.0 0.00 0.00 0.00 64 1018.4
20260503034622 10 0 0.0 0.0 0.00 0.00 0.00 70 1018.4
20260503033906 8 0 0.0 0.0 0.00 0.00 0.00 72 1018.4
20260503033149 8 0 0.0 0.0 0.00 0.00 0.00 72 1018.4
20260503031007 8 0 0.0 0.0 0.00 0.00 0.00 72 1018.2
20260503030250 8 0 0.0 0.0 0.00 0.00 0.00 70 1018.1
20260503025531 8 0 0.0 0.0 0.00 0.00 0.00 71 1018.2
20260503024814 8 0 0.0 0.0 0.00 0.00 0.00 70 1018.2
20260503024057 8 0 0.0 0.0 0.00 0.00 0.00 69 1018.2
20260503023056 8 0 0.0 0.0 0.00 0.00 0.00 70 1018.2
20260503022338 10 0 0.0 0.0 0.00 0.00 0.00 68 1018.2
20260503021620 10 0 0.0 0.0 0.00 0.00 0.00 61 1018.2
20260503020902 10 0 0.0 0.0 0.00 0.00 0.00 61 1018.1
20260503020145 10 0 0.0 0.0 0.00 0.00 0.00 62 1018.3
20260503015427 10 0 0.0 0.0 0.00 0.00 0.00 62 1018.2
20260503014709 9 0 0.0 0.0 0.00 0.00 0.00 65 1018.2
20260503013952 10 0 0.0 0.0 0.00 0.00 0.00 62 1018.2
20260503013235 10 0 0.0 0.0 0.00 0.00 0.00 60 1018.2
20260503012517 10 0 0.0 0.0 0.00 0.00 0.00 60 1018.2
20260503011801 10 0 0.0 0.0 0.00 0.00 0.00 59 1018.2
20260503011036 11 0 0.0 0.0 0.00 0.00 0.00 56 1018.2
20260503010300 11 0 0.0 0.0 0.00 0.00 0.00 57 1018.4
20260503005505 11 0 0.0 0.0 0.00 0.00 0.00 56 1018.4
20260503004710 11 0 0.0 0.0 0.00 0.00 0.00 56 1018.4
20260503003613 11 0 0.0 0.0 0.00 0.00 0.00 57 1018.5
20260503002815 11 0 0.0 0.0 0.00 0.00 0.00 56 1018.5
20260503002019 11 0 0.0 0.0 0.00 0.00 0.00 56 1018.6
20260503001223 11 0 0.0 0.0 0.00 0.00 0.00 56 1018.6
20260503000426 11 0 0.0 0.0 0.00 0.00 0.00 56 1018.7
20260502235627 11 0 0.0 0.0 0.00 0.00 0.00 56 1018.6
20260502234828 11 0 0.0 0.0 0.00 0.00 0.00 56 1018.8
20260502234037 11 0 0.0 0.0 0.00 0.00 0.00 56 1018.8
20260502233302 11 0 0.0 0.0 0.00 0.00 0.00 56 1018.8
20260502232527 12 0 0.0 0.0 0.00 0.00 0.00 56 1018.8
20260502231804 12 0 0.0 0.0 0.00 0.00 0.00 56 1019.0
20260502231045 12 0 0.0 0.0 0.00 0.00 0.00 55 1019.1
20260502230328 11 0 0.0 0.0 0.00 0.00 0.00 56 1019.0
20260502225610 11 0 0.0 0.0 0.00 0.00 0.00 56 1019.0
20260502224853 11 0 0.0 0.0 0.00 0.00 0.00 56 1019.0
20260502223851 12 0 0.0 0.0 0.00 0.00 0.00 54 1019.1
20260502223134 12 0 0.0 0.0 0.00 0.00 0.00 54 1019.1
20260502222415 12 0 0.0 0.0 0.00 0.00 0.00 54 1019.1
20260502221658 12 0 0.0 0.0 0.00 0.00 0.00 52 1019.0
20260502220939 13 0 0.0 0.0 0.00 0.00 0.00 52 1019.0
20260502220221 13 0 0.0 0.0 0.00 0.00 0.00 52 1019.1
20260502215503 13 0 0.0 0.0 0.00 0.00 0.00 52 1019.2
20260502214745 13 0 0.0 0.0 0.00 0.00 0.00 51 1019.2
20260502214027 13 0 0.0 0.0 0.00 0.00 0.00 50 1019.1
20260502213310 13 0 0.0 0.0 0.00 0.00 0.00 48 1019.2